Regional Weather Roundup
Issued by NWS Albany, NY

Home | Current Version | Previous Version | Text Only | Print | Product List | Glossary On
Versions: 1 2 3 4 5 6 7 8 9 10 11 12 13 14 15 16 17 18 19 20 21 22 23 24 25 26 27 28 29 30 31 32 33 34 35 36 37 38 39 40 41 42 43 44 45 46 47
000
ASUS41 KALY 211210
RWRALY

NEW YORK STATE HOURLY WEATHER ROUNDUP
NATIONAL WEATHER SERVICE ALBANY NY
800 AM EDT TUE OCT 21 2014

NOTE: "FAIR" INDICATES FEW OR NO CLOUDS BELOW 12,000 FEET WITH NO
SIGNIFICANT WEATHER AND/OR NO OBSTRUCTIONS TO VISIBILITY.

NYZ032-033-038>043-046>054-057>066-NYZ062>081-211300-
EAST


CITY           SKY/WX    TMP DP  RH WIND       PRES   REMARKS
ALBANY         LGT RAIN  49  46  90 N3        29.91S
GLENS FALLS    LGT RAIN  46  44  93 CALM      29.92R
POUGHKEEPSIE   CLOUDY    49  47  93 CALM      29.90S
NEWBURGH       CLOUDY    50  48  93 VRB6      29.90S
MONTGOMERY     CLOUDY    47  44  90 CALM      29.89S
WHITE PLAINS   MOCLDY    51  45  79 CALM      29.90S
ISLIP          CLOUDY    53  48  83 CALM      29.90S
NEW YORK CITY  MOCLDY    56  47  71 E7        29.90R
CENTRAL PARK   PTCLDY    56  45  66 CALM      29.92S
$$

NYZ005>009-017-018-044>046-055-056-211300-
CENTRAL


CITY           SKY/WX    TMP DP  RH WIND       PRES   REMARKS
FULTON         LGT RAIN  49  46  90 VRB3      29.83R
SYRACUSE       DRIZZLE   48  45  90 E6        29.84R FOG
ROME           CLOUDY    46  45  96 SE6       29.88R
ELMIRA         LGT RAIN  47  46  97 CALM      29.83R
BINGHAMTON     CLOUDY    47  43  86 SE6       29.83R
MONTICELLO     CLOUDY    45  43  93 E6        29.90R
$$

NYZ026>034-041>043-211300-
NORTH


CITY           SKY/WX    TMP DP  RH WIND       PRES   REMARKS
WATERTOWN      CLOUDY    50  42  74 E6        29.85R
FORT DRUM      NOT AVBL
MASSENA        CLOUDY    44  41  89 E13       29.94R
SARANAC LAKE   LGT RAIN  40  39  97 NE5       29.89R
PLATTSBURGH    LGT RAIN  44  43  96 CALM      29.95R
$$

NYZ001>004-010>016-019>021-211300-
WEST


CITY           SKY/WX    TMP DP  RH WIND       PRES   REMARKS
NIAGARA FALLS  CLOUDY    50  48  93 W7        29.81R FOG
BUFFALO        CLOUDY    50  48  93 W3        29.82R FOG
DUNKIRK        CLOUDY    52  48  86 W3        29.83R
JAMESTOWN      CLOUDY    48  45  87 NW3       29.83R
WELLSVILLE     LGT RAIN  47  45  93 SW7       29.82R
ROCHESTER      RAIN      50  48  93 SW5       29.81R FOG
PENN YAN       LGT RAIN  48  50 100 S5        29.82R
$$

             KEY
       WCI = WIND CHILL INDEX
       VSB = VISIBILITY
       HX  = HEAT INDEX
$$



USA.gov is the U.S. government's official web portal to all federal, state and local government web resources and services.